User: anonymous
Location: Stull Observatory
(42.2506°N, 77.7903°W)
Time: 12:55:33
(UTC-04:00)
Language:

Abrixas rocket - Orbit

View from above orbital plane
View from above orbital plane
View from above satellite
View from above satellite

Ground track
Ground track

The orbit data is extracted from the following two-line orbital elements,

1 25723U 99022C   14237.33728412  .00006575  00000-0  22135-3 0  7265
2 25723 048.4235 165.1340 0017007 188.5870 317.7878 15.31738058847752
Epoch (UTC): 25 August 2014 08:05:41
Eccentricity: 0.0017007
inclination: 48.4235°
perigee height: 459 km
apogee height: 482 km
right ascension of ascending node: 165.1340°
argument of perigee: 188.5870°
revolutions per day: 15.31738058
mean anomaly at epoch: 317.7878°
orbit number at epoch: 84775

The dashed part of the orbit path shows where the satellite is in the earth's shadow,  

DLR